When you browse on this site, cookies collect data to enhance your experience and personalize the content and advertising you see.
Visit our Privacy Policy to learn more. By continuing to use the site, you agree to this use of cookies and data.
  • En España
  • Lista de países
  • Para 7 días
  • Temperatura del agua
  • Mapa Satelital
  • El tiempo en el mapa
  • Informadores
  • user-avatar
    Iniciar sesión

    Tiempo cada hora Satif

    Hoy, 25 Junio, Martes

    Tiempo Temperatura Precipitaciones Viento Presión Humedad
    00:00 +28°C° 0 mm 3 mps 675 mmHg 14%
    01:00 +28°C° 0 mm 3 mps 674 mmHg 14%
    02:00 +27°C° 0 mm 3 mps 674 mmHg 15%
    03:00 +27°C° 0 mm 3 mps 674 mmHg 15%
    04:00 +28°C° 0 mm 2 mps 674 mmHg 15%
    05:00 +29°C° 0 mm 2 mps 675 mmHg 15%
    06:00 +30°C° 0 mm 2 mps 676 mmHg 15%
    07:00 +33°C° 0 mm 4 mps 676 mmHg 13%
    08:00 +35°C° 0 mm 5 mps 677 mmHg 11%
    09:00 +38°C° 0 mm 7 mps 678 mmHg 9%
    10:00 +39°C° 0 mm 7 mps 678 mmHg 8%
    11:00 +40°C° 0 mm 6 mps 678 mmHg 8%
    12:00 +40°C° 0 mm 6 mps 678 mmHg 8%
    13:00 +40°C° 0 mm 6 mps 678 mmHg 8%
    14:00 +40°C° 0 mm 6 mps 678 mmHg 8%
    15:00 +40°C° 0 mm 6 mps 678 mmHg 8%
    16:00 +40°C° 0 mm 5 mps 678 mmHg 9%
    17:00 +38°C° 0 mm 4 mps 677 mmHg 9%
    18:00 +37°C° 0 mm 4 mps 677 mmHg 10%
    19:00 +35°C° 0 mm 3 mps 677 mmHg 13%
    20:00 +33°C° 0 mm 3 mps 677 mmHg 16%
    21:00 +30°C° 0 mm 2 mps 677 mmHg 19%
    22:00 +29°C° 0 mm 2 mps 676 mmHg 20%
    23:00 +28°C° 0 mm 2 mps 676 mmHg 21%

    Mañana, 26 Junio, Miércoles

    Tiempo Temperatura Precipitaciones Viento Presión Humedad
    00:00 +28°C° 0 mm 2 mps 676 mmHg 22%
    01:00 +27°C° 0 mm 1 mps 675 mmHg 23%
    02:00 +26°C° 0 mm 1 mps 675 mmHg 24%
    03:00 +25°C° 0 mm 1 mps 675 mmHg 25%
    04:00 +27°C° 0 mm 1 mps 675 mmHg 23%
    05:00 +29°C° 0 mm 1 mps 676 mmHg 21%
    06:00 +30°C° 0 mm 1 mps 677 mmHg 19%
    07:00 +32°C° 0 mm 1 mps 677 mmHg 16%
    08:00 +35°C° 0 mm 2 mps 678 mmHg 13%
    09:00 +37°C° 0 mm 2 mps 679 mmHg 10%
    10:00 +38°C° 0 mm 2 mps 679 mmHg 9%
    11:00 +39°C° 0 mm 2 mps 679 mmHg 9%
    12:00 +39°C° 0 mm 2 mps 679 mmHg 8%
    13:00 +39°C° 0 mm 3 mps 678 mmHg 9%
    14:00 +40°C° 0 mm 5 mps 678 mmHg 10%
    15:00 +40°C° 0 mm 7 mps 678 mmHg 10%
    16:00 +39°C° 0 mm 6 mps 678 mmHg 11%
    17:00 +38°C° 0 mm 6 mps 677 mmHg 12%
    18:00 +37°C° 0 mm 5 mps 677 mmHg 12%
    19:00 +34°C° 0 mm 4 mps 677 mmHg 15%
    20:00 +31°C° 0 mm 3 mps 677 mmHg 18%
    21:00 +29°C° 0 mm 2 mps 677 mmHg 21%
    22:00 +28°C° 0 mm 2 mps 676 mmHg 23%
    23:00 +27°C° 0 mm 2 mps 676 mmHg 25%

    Pasado mañana, 27 Junio, Jueves

    Tiempo Temperatura Precipitaciones Viento Presión Humedad
    00:00 +26°C° 0 mm 1 mps 676 mmHg 27%
    01:00 +26°C° 0 mm 1 mps 675 mmHg 27%
    02:00 +25°C° 0 mm 1 mps 675 mmHg 28%
    03:00 +24°C° 0 mm 1 mps 675 mmHg 29%
    04:00 +26°C° 0 mm 1 mps 675 mmHg 27%
    05:00 +25°C° 0 mm 0 mps 676 mmHg 25%
    06:00 +27°C° 0 mm 0 mps 676 mmHg 23%
    07:00 +28°C° 0 mm 0 mps 677 mmHg 21%
    08:00 +30°C° 0 mm 0 mps 677 mmHg 18%
    09:00 +31°C° 0 mm 0 mps 678 mmHg 15%
    10:00 +35°C° 0 mm 2 mps 678 mmHg 14%
    11:00 +36°C° 0 mm 3 mps 678 mmHg 12%
    12:00 +39°C° 0 mm 5 mps 678 mmHg 11%
    13:00 +37°C° 0 mm 5 mps 677 mmHg 12%
    14:00 +38°C° 0 mm 6 mps 677 mmHg 13%
    15:00 +36°C° 0 mm 7 mps 676 mmHg 14%
    16:00 +35°C° 0 mm 6 mps 676 mmHg 18%
    17:00 +33°C° 0 mm 6 mps 675 mmHg 21%
    18:00 +32°C° 0 mm 6 mps 675 mmHg 24%
    19:00 +29°C° 0 mm 5 mps 675 mmHg 29%
    20:00 +27°C° 0 mm 4 mps 675 mmHg 34%
    21:00 +25°C° 0 mm 3 mps 675 mmHg 39%
    22:00 +25°C° 0 mm 2 mps 674 mmHg 40%
    23:00 +24°C° 0 mm 2 mps 674 mmHg 42%

    28 Junio, Viernes

    Tiempo Temperatura Precipitaciones Viento Presión Humedad
    00:00 +23°C° 0 mm 1 mps 674 mmHg 44%
    01:00 +23°C° 0 mm 1 mps 674 mmHg 45%
    02:00 +22°C° 0 mm 1 mps 673 mmHg 46%
    03:00 +22°C° 0 mm 1 mps 673 mmHg 47%
    04:00 +23°C° 0 mm 1 mps 673 mmHg 45%
    05:00 +24°C° 0 mm 1 mps 673 mmHg 42%
    06:00 +24°C° 0 mm 1 mps 674 mmHg 40%
    07:00 +26°C° 0 mm 1 mps 674 mmHg 36%
    08:00 +28°C° 0 mm 1 mps 675 mmHg 32%
    09:00 +29°C° 0 mm 1 mps 675 mmHg 29%
    10:00 +30°C° 0 mm 1 mps 675 mmHg 25%
    11:00 +32°C° 0 mm 1 mps 675 mmHg 21%
    12:00 +34°C° 0 mm 2 mps 675 mmHg 17%
    13:00 +34°C° 0 mm 3 mps 675 mmHg 17%
    14:00 +35°C° 0 mm 4 mps 675 mmHg 17%
    15:00 +35°C° 0 mm 5 mps 675 mmHg 17%
    16:00 +34°C° 0 mm 5 mps 674 mmHg 22%
    17:00 +32°C° 0 mm 5 mps 674 mmHg 26%
    18:00 +30°C° 0 mm 6 mps 674 mmHg 31%
    19:00 +29°C° 0 mm 4 mps 674 mmHg 34%
    20:00 +27°C° 0 mm 3 mps 674 mmHg 38%
    21:00 +26°C° 0 mm 2 mps 674 mmHg 42%
    22:00 +25°C° 0 mm 2 mps 673 mmHg 43%
    23:00 +24°C° 0 mm 2 mps 673 mmHg 44%

    29 Junio, Sábado

    Tiempo Temperatura Precipitaciones Viento Presión Humedad
    00:00 +24°C° 0 mm 2 mps 673 mmHg 44%
    01:00 +23°C° 0 mm 1 mps 672 mmHg 45%
    02:00 +22°C° 0 mm 1 mps 672 mmHg 45%
    03:00 +22°C° 0 mm 1 mps 672 mmHg 46%
    04:00 +23°C° 0 mm 1 mps 672 mmHg 42%
    05:00 +24°C° 0 mm 1 mps 673 mmHg 37%
    06:00 +26°C° 0 mm 1 mps 673 mmHg 33%
    07:00 +28°C° 0 mm 1 mps 674 mmHg 29%
    08:00 +29°C° 0 mm 1 mps 675 mmHg 25%
    09:00 +31°C° 0 mm 1 mps 675 mmHg 21%
    10:00 +33°C° 0 mm 1 mps 675 mmHg 18%
    11:00 +34°C° 0 mm 1 mps 675 mmHg 16%
    12:00 +35°C° 0 mm 1 mps 676 mmHg 13%
    13:00 +36°C° 0 mm 2 mps 675 mmHg 13%
    14:00 +37°C° 0 mm 3 mps 675 mmHg 12%
    15:00 +37°C° 0 mm 4 mps 675 mmHg 11%
    16:00 +36°C° 0 mm 5 mps 675 mmHg 13%
    17:00 +36°C° 0 mm 5 mps 675 mmHg 15%
    18:00 +35°C° 0 mm 6 mps 674 mmHg 16%
    19:00 +33°C° 0 mm 5 mps 674 mmHg 21%
    20:00 +30°C° 0 mm 4 mps 674 mmHg 25%
    21:00 +28°C° 0 mm 2 mps 674 mmHg 29%
    22:00 +27°C° 0 mm 2 mps 674 mmHg 31%
    23:00 +26°C° 0 mm 2 mps 674 mmHg 33%

    30 Junio, Domingo

    Tiempo Temperatura Precipitaciones Viento Presión Humedad
    00:00 +26°C° 0 mm 2 mps 673 mmHg 34%
    01:00 +25°C° 0 mm 2 mps 673 mmHg 36%
    02:00 +24°C° 0 mm 1 mps 673 mmHg 37%
    03:00 +23°C° 0 mm 1 mps 672 mmHg 39%
    04:00 +25°C° 0 mm 1 mps 673 mmHg 35%
    05:00 +27°C° 0 mm 1 mps 674 mmHg 31%
    06:00 +28°C° 0 mm 1 mps 674 mmHg 27%
    07:00 +30°C° 0 mm 1 mps 675 mmHg 23%
    08:00 +32°C° 0 mm 1 mps 676 mmHg 19%
    09:00 +34°C° 0 mm 1 mps 676 mmHg 15%
    10:00 +35°C° 0 mm 1 mps 676 mmHg 14%
    11:00 +36°C° 0 mm 1 mps 676 mmHg 12%
    12:00 +37°C° 0 mm 1 mps 676 mmHg 11%
    13:00 +38°C° 0 mm 2 mps 676 mmHg 11%
    14:00 +38°C° 0 mm 3 mps 675 mmHg 11%
    15:00 +39°C° 0 mm 5 mps 675 mmHg 12%
    16:00 +37°C° 0 mm 5 mps 675 mmHg 13%
    17:00 +36°C° 0 mm 5 mps 675 mmHg 14%
    18:00 +35°C° 0 mm 6 mps 674 mmHg 15%
    19:00 +33°C° 0 mm 4 mps 674 mmHg 17%
    20:00 +30°C° 0 mm 3 mps 674 mmHg 20%
    21:00 +28°C° 0 mm 2 mps 674 mmHg 23%
    22:00 +28°C° 0 mm 1 mps 673 mmHg 23%
    23:00 +27°C° 0 mm 1 mps 673 mmHg 24%
    Mostrar más